Time,TemperatureF,DewpointF,PressureIn,WindDirection,WindDirectionDegrees,WindSpeedMPH,WindSpeedGustMPH,Humidity,HourlyPrecipIn,Conditions,Clouds,dailyrainin,SoftwareType,DateUTC
2013-08-06 00:05:00,80.1,67.7,29.29,West,270,12.3,12.3,66,0.00,,---,0.00,VWS V14.01,2013-08-06 05:05:00,
2013-08-06 00:11:00,79.9,67.9,29.29,West,270,12.3,12.3,67,0.00,,---,0.00,VWS V14.01,2013-08-06 05:11:00,
2013-08-06 00:21:00,79.7,67.8,29.32,West,270,12.3,12.3,67,0.00,,---,0.00,VWS V14.01,2013-08-06 05:21:00,
2013-08-06 00:26:00,79.5,67.6,29.32,West,270,12.3,12.3,67,0.00,,---,0.00,VWS V14.01,2013-08-06 05:26:00,
2013-08-06 00:31:00,79.3,67.9,29.32,West,270,12.3,12.3,68,0.00,,---,0.00,VWS V14.01,2013-08-06 05:31:00,
2013-08-06 00:36:00,79.3,67.9,29.32,West,270,12.3,12.3,68,0.00,,---,0.00,VWS V14.01,2013-08-06 05:36:00,
2013-08-06 00:41:00,79.2,68.1,29.32,West,270,12.3,12.3,69,0.00,,---,0.00,VWS V14.01,2013-08-06 05:41:00,
2013-08-06 00:46:00,79.2,68.1,29.32,West,270,12.3,12.3,69,0.00,,---,0.00,VWS V14.01,2013-08-06 05:46:00,
2013-08-06 00:51:00,79.0,68.8,29.32,West,270,12.3,12.3,71,0.00,,---,0.00,VWS V14.01,2013-08-06 05:51:00,
2013-08-06 00:56:00,79.2,70.2,29.32,West,270,12.3,12.3,74,0.00,,---,0.00,VWS V14.01,2013-08-06 05:56:00,
2013-08-06 01:01:00,79.2,69.8,29.29,West,270,12.3,12.3,73,0.00,,---,0.00,VWS V14.01,2013-08-06 06:01:00,
2013-08-06 01:06:00,79.0,70.0,29.29,West,270,12.3,12.3,74,0.00,,---,0.00,VWS V14.01,2013-08-06 06:06:00,
2013-08-06 01:11:00,79.2,70.2,29.29,West,270,12.3,12.3,74,0.00,,---,0.00,VWS V14.01,2013-08-06 06:11:00,
2013-08-06 01:16:00,79.3,70.7,29.26,West,270,12.3,12.3,75,0.00,,---,0.00,VWS V14.01,2013-08-06 06:16:00,
2013-08-06 01:21:00,79.3,70.3,29.26,West,270,12.3,12.3,74,0.00,,---,0.00,VWS V14.01,2013-08-06 06:21:00,
2013-08-06 01:26:00,79.3,69.9,29.26,West,270,12.3,12.3,73,0.00,,---,0.00,VWS V14.01,2013-08-06 06:26:00,
2013-08-06 01:31:00,79.3,70.3,29.26,West,270,12.3,12.3,74,0.00,,---,0.00,VWS V14.01,2013-08-06 06:31:00,
2013-08-06 01:36:00,79.3,69.9,29.26,West,270,12.3,12.3,73,0.00,,---,0.00,VWS V14.01,2013-08-06 06:36:00,
2013-08-06 01:41:00,79.2,69.4,29.26,West,270,12.3,12.3,72,0.00,,---,0.00,VWS V14.01,2013-08-06 06:41:00,
2013-08-06 01:47:00,79.2,69.4,29.26,West,270,12.3,12.3,72,0.00,,---,0.00,VWS V14.01,2013-08-06 06:47:00,
2013-08-06 01:52:00,79.2,68.9,29.26,West,270,12.3,12.3,71,0.00,,---,0.00,VWS V14.01,2013-08-06 06:52:00,
2013-08-06 01:57:00,79.2,68.5,29.26,West,270,12.3,12.3,70,0.00,,---,0.00,VWS V14.01,2013-08-06 06:57:00,
2013-08-06 02:02:00,79.2,68.5,29.26,West,270,12.3,12.3,70,0.00,,---,0.00,VWS V14.01,2013-08-06 07:02:00,
2013-08-06 02:07:00,79.3,68.7,29.26,West,270,12.3,12.3,70,0.00,,---,0.00,VWS V14.01,2013-08-06 07:07:00,
2013-08-06 02:12:00,79.2,68.1,29.26,West,270,12.3,12.3,69,0.00,,---,0.00,VWS V14.01,2013-08-06 07:12:00,
2013-08-06 02:17:00,79.0,67.9,29.26,West,270,12.3,12.3,69,0.00,,---,0.00,VWS V14.01,2013-08-06 07:17:00,
2013-08-06 02:22:00,79.0,67.9,29.26,West,270,12.3,12.3,69,0.00,,---,0.00,VWS V14.01,2013-08-06 07:22:00,
2013-08-06 02:27:00,78.8,67.8,29.26,West,270,12.3,12.3,69,0.00,,---,0.00,VWS V14.01,2013-08-06 07:27:00,
2013-08-06 02:30:00,77.5,69.0,29.23,West,270,12.3,12.3,75,0.00,,---,0.00,VWS V14.01,2013-08-06 07:30:00,
2013-08-06 02:32:00,78.8,67.8,29.26,West,270,12.3,12.3,69,0.00,,---,0.00,VWS V14.01,2013-08-06 07:32:00,
2013-08-06 02:33:00,77.7,69.6,29.26,West,270,12.3,12.3,76,0.00,,---,0.00,VWS V14.01,2013-08-06 07:33:00,
2013-08-06 02:34:00,77.7,69.9,29.26,West,270,12.3,12.3,77,0.00,,---,0.00,VWS V14.01,2013-08-06 07:34:00,
2013-08-06 02:35:00,77.7,69.9,29.26,West,270,12.3,12.3,77,0.00,,---,0.00,VWS V14.01,2013-08-06 07:35:00,
2013-08-06 02:37:00,78.6,68.0,29.26,West,270,12.3,12.3,70,0.00,,---,0.00,VWS V14.01,2013-08-06 07:37:00,
2013-08-06 02:42:00,78.6,68.0,29.26,West,270,12.3,12.3,70,0.00,,---,0.00,VWS V14.01,2013-08-06 07:42:00,
2013-08-06 02:47:00,78.4,67.8,29.26,West,270,12.3,12.3,70,0.00,,---,0.00,VWS V14.01,2013-08-06 07:47:00,
2013-08-06 02:49:00,77.2,68.7,29.26,West,270,12.3,12.3,75,0.00,,---,0.00,VWS V14.01,2013-08-06 07:49:00,
2013-08-06 02:52:00,78.3,68.1,29.26,West,270,12.3,12.3,71,0.00,,---,0.00,VWS V14.01,2013-08-06 07:52:00,
2013-08-06 02:57:00,78.3,68.1,29.26,West,270,12.3,12.3,71,0.00,,---,0.00,VWS V14.01,2013-08-06 07:57:00,
2013-08-06 03:00:00,77.0,69.6,29.26,West,270,12.3,12.3,78,0.00,,---,0.00,VWS V14.01,2013-08-06 08:00:00,
2013-08-06 03:01:00,77.0,69.2,29.26,West,270,12.3,12.3,77,0.00,,---,0.00,VWS V14.01,2013-08-06 08:01:00,
2013-08-06 03:02:00,78.1,68.7,29.26,West,270,12.3,12.3,73,0.00,,---,0.00,VWS V14.01,2013-08-06 08:02:00,
2013-08-06 03:04:00,77.0,70.0,29.26,West,270,12.3,12.3,79,0.00,,---,0.00,VWS V14.01,2013-08-06 08:04:00,
2013-08-06 03:07:00,77.9,68.2,29.26,West,270,12.3,12.3,72,0.00,,---,0.00,VWS V14.01,2013-08-06 08:07:00,
2013-08-06 03:11:00,76.8,70.6,29.26,West,270,12.3,12.3,81,0.00,,---,0.00,VWS V14.01,2013-08-06 08:11:00,
2013-08-06 03:12:00,77.9,68.2,29.26,West,270,12.3,12.3,72,0.00,,---,0.00,VWS V14.01,2013-08-06 08:12:00,
2013-08-06 03:17:00,77.7,68.0,29.23,West,270,12.3,12.3,72,0.00,,---,0.00,VWS V14.01,2013-08-06 08:17:00,
2013-08-06 03:18:00,76.6,71.1,29.26,West,270,12.3,12.3,83,0.00,,---,0.00,VWS V14.01,2013-08-06 08:18:00,
2013-08-06 03:22:00,77.5,68.6,0.00,West,270,12.3,12.3,74,0.00,,---,0.00,VWS V14.01,2013-08-06 08:22:00,
2013-08-06 03:23:00,76.5,70.6,29.26,West,270,12.3,12.3,82,0.00,,---,0.00,VWS V14.01,2013-08-06 08:23:00,
2013-08-06 03:26:00,76.6,70.7,29.26,West,270,12.3,12.3,82,0.00,,---,0.00,VWS V14.01,2013-08-06 08:26:00,
2013-08-06 03:28:00,77.5,69.0,29.23,West,270,12.3,12.3,75,0.00,,---,0.00,VWS V14.01,2013-08-06 08:28:00,
2013-08-06 03:33:00,77.5,69.8,29.26,West,270,12.3,12.3,77,0.00,,---,0.00,VWS V14.01,2013-08-06 08:33:00,
2013-08-06 03:34:00,76.3,70.7,29.26,West,270,12.3,12.3,83,0.00,,---,0.00,VWS V14.01,2013-08-06 08:34:00,
2013-08-06 03:37:00,76.3,70.7,29.26,West,270,12.3,12.3,83,0.00,,---,0.00,VWS V14.01,2013-08-06 08:37:00,
2013-08-06 03:38:00,77.4,69.2,29.26,West,270,12.3,12.3,76,0.00,,---,0.00,VWS V14.01,2013-08-06 08:38:00,
2013-08-06 03:40:00,76.3,70.7,29.26,West,270,12.3,12.3,83,0.00,,---,0.00,VWS V14.01,2013-08-06 08:40:00,
2013-08-06 03:43:00,77.4,69.2,29.26,West,270,12.3,12.3,76,0.00,,---,0.00,VWS V14.01,2013-08-06 08:43:00,
2013-08-06 03:46:00,76.1,70.6,29.26,West,270,12.3,12.3,83,0.00,,---,0.00,VWS V14.01,2013-08-06 08:46:00,
2013-08-06 03:48:00,77.2,69.0,29.26,West,270,12.3,12.3,76,0.00,,---,0.00,VWS V14.01,2013-08-06 08:48:00,
2013-08-06 03:53:00,77.4,69.6,29.26,West,270,12.3,12.3,77,0.00,,---,0.00,VWS V14.01,2013-08-06 08:53:00,
2013-08-06 03:59:00,77.0,69.2,29.26,West,270,12.3,12.3,77,0.00,,---,0.00,VWS V14.01,2013-08-06 08:59:00,
2013-08-06 04:04:00,77.0,70.4,29.26,West,270,12.3,12.3,80,0.00,,---,0.00,VWS V14.01,2013-08-06 09:04:00,
2013-08-06 04:10:00,76.8,70.9,29.26,West,270,12.3,12.3,82,0.00,,---,0.00,VWS V14.01,2013-08-06 09:10:00,
2013-08-06 04:16:00,76.6,71.1,29.26,West,270,12.3,12.3,83,0.00,,---,0.00,VWS V14.01,2013-08-06 09:16:00,
2013-08-06 04:21:00,76.5,70.6,29.26,West,270,12.3,12.3,82,0.00,,---,0.00,VWS V14.01,2013-08-06 09:21:00,
2013-08-06 04:26:00,76.5,70.9,29.26,West,270,12.3,12.3,83,0.00,,---,0.00,VWS V14.01,2013-08-06 09:26:00,
2013-08-06 04:31:00,76.3,70.7,29.26,West,270,12.3,12.3,83,0.00,,---,0.00,VWS V14.01,2013-08-06 09:31:00,
2013-08-06 04:36:00,76.3,70.7,29.26,West,270,12.3,12.3,83,0.00,,---,0.00,VWS V14.01,2013-08-06 09:36:00,
2013-08-06 04:41:00,76.3,70.7,29.26,West,270,12.3,12.3,83,0.00,,---,0.00,VWS V14.01,2013-08-06 09:41:00,
2013-08-06 04:47:00,76.1,70.6,29.26,West,270,12.3,12.3,83,0.00,,---,0.00,VWS V14.01,2013-08-06 09:47:00,
2013-08-06 04:52:00,76.1,70.6,29.26,West,270,12.3,12.3,83,0.00,,---,0.00,VWS V14.01,2013-08-06 09:52:00,
2013-08-06 04:57:00,75.9,70.0,29.26,West,270,12.3,12.3,82,0.00,,---,0.00,VWS V14.01,2013-08-06 09:57:00,
2013-08-06 05:02:00,75.9,70.4,29.23,West,270,12.3,12.3,83,0.00,,---,0.00,VWS V14.01,2013-08-06 10:02:00,
2013-08-06 05:07:00,75.9,70.4,29.23,West,270,12.3,12.3,83,0.00,,---,0.00,VWS V14.01,2013-08-06 10:07:00,
2013-08-06 05:12:00,75.7,70.2,29.23,West,270,12.3,12.3,83,0.00,,---,0.00,VWS V14.01,2013-08-06 10:12:00,
2013-08-06 05:17:00,75.9,71.1,29.26,West,270,12.3,12.3,85,0.00,,---,0.00,VWS V14.01,2013-08-06 10:17:00,
2013-08-06 05:22:00,75.7,71.3,29.26,West,270,12.3,12.3,86,0.00,,---,0.00,VWS V14.01,2013-08-06 10:22:00,
2013-08-06 05:27:00,75.7,71.3,29.26,West,270,12.3,12.3,86,0.00,,---,0.00,VWS V14.01,2013-08-06 10:27:00,
2013-08-06 05:32:00,76.1,71.6,29.26,West,270,12.3,12.3,86,0.00,,---,0.00,VWS V14.01,2013-08-06 10:32:00,
2013-08-06 05:37:00,75.9,71.8,29.26,West,270,12.3,12.3,87,0.00,,---,0.00,VWS V14.01,2013-08-06 10:37:00,
2013-08-06 05:42:00,75.9,72.1,29.26,West,270,12.3,12.3,88,0.00,,---,0.00,VWS V14.01,2013-08-06 10:42:00,
2013-08-06 05:47:00,75.7,71.6,29.26,West,270,12.3,12.3,87,0.00,,---,0.00,VWS V14.01,2013-08-06 10:47:00,
2013-08-06 05:52:00,75.7,71.6,29.26,West,270,12.3,12.3,87,0.00,,---,0.00,VWS V14.01,2013-08-06 10:52:00,
2013-08-06 05:57:00,75.7,71.9,29.26,West,270,12.3,12.3,88,0.00,,---,0.00,VWS V14.01,2013-08-06 10:57:00,
2013-08-06 06:02:00,75.6,71.8,29.26,West,270,12.3,12.3,88,0.00,,---,0.00,VWS V14.01,2013-08-06 11:02:00,
2013-08-06 06:07:00,75.7,71.9,29.26,West,270,12.3,12.3,88,0.00,,---,0.00,VWS V14.01,2013-08-06 11:07:00,
2013-08-06 06:12:00,75.6,71.8,29.26,West,270,12.3,12.3,88,0.00,,---,0.00,VWS V14.01,2013-08-06 11:12:00,
2013-08-06 06:17:00,75.6,71.8,29.23,West,270,12.3,12.3,88,0.00,,---,0.00,VWS V14.01,2013-08-06 11:17:00,
2013-08-06 06:22:00,75.6,71.8,29.23,West,270,12.3,12.3,88,0.00,,---,0.00,VWS V14.01,2013-08-06 11:22:00,
2013-08-06 06:27:00,75.6,71.8,29.23,West,270,12.3,12.3,88,0.00,,---,0.00,VWS V14.01,2013-08-06 11:27:00,
2013-08-06 06:32:00,75.6,71.8,29.23,West,270,12.3,12.3,88,0.00,,---,0.00,VWS V14.01,2013-08-06 11:32:00,
2013-08-06 06:37:00,75.7,71.9,29.23,West,270,12.3,12.3,88,0.00,,---,0.00,VWS V14.01,2013-08-06 11:37:00,
2013-08-06 06:42:00,75.6,72.1,29.23,West,270,12.3,12.3,89,0.00,,---,0.00,VWS V14.01,2013-08-06 11:42:00,
2013-08-06 06:47:00,75.6,72.1,29.26,West,270,12.3,12.3,89,0.00,,---,0.00,VWS V14.01,2013-08-06 11:47:00,
2013-08-06 06:52:00,75.6,72.1,29.26,West,270,12.3,12.3,89,0.00,,---,0.00,VWS V14.01,2013-08-06 11:52:00,
2013-08-06 06:57:00,75.6,72.1,29.26,West,270,12.3,12.3,89,0.00,,---,0.00,VWS V14.01,2013-08-06 11:57:00,
2013-08-06 07:02:00,75.7,72.3,29.26,West,270,12.3,12.3,89,0.00,,---,0.00,VWS V14.01,2013-08-06 12:02:00,
2013-08-06 07:07:00,75.7,72.3,29.26,West,270,12.3,12.3,89,0.00,,---,0.00,VWS V14.01,2013-08-06 12:07:00,
2013-08-06 07:12:00,75.7,72.3,29.26,West,270,12.3,12.3,89,0.00,,---,0.00,VWS V14.01,2013-08-06 12:12:00,
2013-08-06 07:17:00,75.7,72.3,29.29,West,270,12.3,12.3,89,0.00,,---,0.00,VWS V14.01,2013-08-06 12:17:00,
2013-08-06 07:23:00,75.9,72.4,29.29,West,270,12.3,12.3,89,0.00,,---,0.00,VWS V14.01,2013-08-06 12:23:00,
2013-08-06 07:28:00,75.9,72.4,29.29,West,270,12.3,12.3,89,0.00,,---,0.00,VWS V14.01,2013-08-06 12:28:00,
2013-08-06 07:33:00,76.1,72.6,29.29,West,270,12.3,12.3,89,0.00,,---,0.00,VWS V14.01,2013-08-06 12:33:00,
2013-08-06 07:38:00,76.3,73.1,29.29,West,270,12.3,12.3,90,0.00,,---,0.00,VWS V14.01,2013-08-06 12:38:00,
2013-08-06 07:43:00,76.1,73.0,29.29,West,270,12.3,12.3,90,0.00,,---,0.00,VWS V14.01,2013-08-06 12:43:00,
2013-08-06 07:48:00,76.5,73.6,29.29,West,270,12.3,12.3,91,0.00,,---,0.00,VWS V14.01,2013-08-06 12:48:00,
2013-08-06 07:53:00,76.5,73.6,29.29,West,270,12.3,12.3,91,0.00,,---,0.00,VWS V14.01,2013-08-06 12:53:00,
2013-08-06 07:58:00,76.6,74.2,29.29,West,270,12.3,12.3,92,0.00,,---,0.00,VWS V14.01,2013-08-06 12:58:00,
2013-08-06 08:03:00,77.0,74.2,29.32,West,270,12.3,12.3,91,0.00,,---,0.00,VWS V14.01,2013-08-06 13:03:00,
2013-08-06 08:08:00,77.2,74.3,29.32,West,270,12.3,12.3,91,0.00,,---,0.00,VWS V14.01,2013-08-06 13:08:00,
2013-08-06 08:13:00,77.5,74.7,29.32,West,270,12.3,12.3,91,0.00,,---,0.00,VWS V14.01,2013-08-06 13:13:00,
2013-08-06 08:18:00,77.7,74.9,29.32,West,270,12.3,12.3,91,0.00,,---,0.00,VWS V14.01,2013-08-06 13:18:00,
2013-08-06 08:23:00,78.3,75.4,29.32,West,270,12.3,12.3,91,0.00,,---,0.00,VWS V14.01,2013-08-06 13:23:00,
2013-08-06 08:28:00,78.4,75.3,29.32,West,270,12.3,12.3,90,0.00,,---,0.00,VWS V14.01,2013-08-06 13:28:00,
2013-08-06 08:33:00,79.0,75.1,29.32,West,270,12.3,12.3,88,0.00,,---,0.00,VWS V14.01,2013-08-06 13:33:00,
2013-08-06 08:38:00,79.3,74.8,29.32,West,270,12.3,12.3,86,0.00,,---,0.00,VWS V14.01,2013-08-06 13:38:00,
2013-08-06 08:43:00,79.9,75.0,29.32,West,270,12.3,12.3,85,0.00,,---,0.00,VWS V14.01,2013-08-06 13:43:00,
2013-08-06 08:48:00,80.6,75.0,29.32,West,270,12.3,12.3,83,0.00,,---,0.00,VWS V14.01,2013-08-06 13:48:00,
2013-08-06 08:53:00,81.0,73.1,29.32,West,270,12.3,12.3,77,0.00,,---,0.00,VWS V14.01,2013-08-06 13:53:00,
2013-08-06 08:58:00,81.3,72.6,29.32,West,270,12.3,12.3,75,0.00,,---,0.00,VWS V14.01,2013-08-06 13:58:00,
2013-08-06 09:03:00,81.3,71.0,29.29,West,270,12.3,12.3,71,0.00,,---,0.00,VWS V14.01,2013-08-06 14:03:00,
2013-08-06 09:08:00,81.9,70.3,29.29,West,270,12.3,12.3,68,0.00,,---,0.00,VWS V14.01,2013-08-06 14:08:00,
2013-08-06 09:13:00,82.2,70.6,29.29,West,270,12.3,12.3,68,0.00,,---,0.00,VWS V14.01,2013-08-06 14:13:00,
2013-08-06 09:18:00,82.9,70.4,29.29,West,270,12.3,12.3,66,0.00,,---,0.00,VWS V14.01,2013-08-06 14:18:00,
2013-08-06 09:23:00,83.3,69.9,29.29,West,270,12.3,12.3,64,0.00,,---,0.00,VWS V14.01,2013-08-06 14:23:00,
2013-08-06 09:28:00,83.5,66.7,29.29,West,270,12.3,12.3,57,0.00,,---,0.00,VWS V14.01,2013-08-06 14:28:00,
2013-08-06 09:33:00,84.2,65.8,29.32,West,270,12.3,12.3,54,0.00,,---,0.00,VWS V14.01,2013-08-06 14:33:00,
2013-08-06 09:38:00,85.1,66.6,29.32,West,270,12.3,12.3,54,0.00,,---,0.00,VWS V14.01,2013-08-06 14:38:00,
2013-08-06 09:43:00,85.3,63.4,29.32,West,270,12.3,12.3,48,0.00,,---,0.00,VWS V14.01,2013-08-06 14:43:00,
2013-08-06 09:48:00,85.3,63.4,29.32,West,270,12.3,12.3,48,0.00,,---,0.00,VWS V14.01,2013-08-06 14:48:00,
2013-08-06 09:54:00,85.3,62.8,29.32,West,270,12.3,12.3,47,0.00,,---,0.00,VWS V14.01,2013-08-06 14:54:00,
2013-08-06 09:59:00,86.0,61.6,29.32,West,270,12.3,12.3,44,0.00,,---,0.00,VWS V14.01,2013-08-06 14:59:00,
2013-08-06 10:04:00,86.7,61.6,29.32,West,270,12.3,12.3,43,0.00,,---,0.00,VWS V14.01,2013-08-06 15:04:00,
2013-08-06 10:09:00,87.4,63.5,29.32,West,270,12.3,12.3,45,0.00,,---,0.00,VWS V14.01,2013-08-06 15:09:00,
2013-08-06 10:14:00,88.0,60.7,29.32,West,270,12.3,12.3,40,0.00,,---,0.00,VWS V14.01,2013-08-06 15:14:00,
2013-08-06 10:19:00,88.5,60.4,29.32,West,270,12.3,12.3,39,0.00,,---,0.00,VWS V14.01,2013-08-06 15:19:00,
2013-08-06 10:24:00,88.7,60.6,29.32,West,270,12.3,12.3,39,0.00,,---,0.00,VWS V14.01,2013-08-06 15:24:00,
2013-08-06 10:29:00,88.0,57.7,29.32,West,270,12.3,12.3,36,0.00,,---,0.00,VWS V14.01,2013-08-06 15:29:00,
2013-08-06 10:34:00,87.4,58.0,29.32,West,270,12.3,12.3,37,0.00,,---,0.00,VWS V14.01,2013-08-06 15:34:00,
2013-08-06 10:39:00,87.4,59.5,29.32,West,270,12.3,12.3,39,0.00,,---,0.00,VWS V14.01,2013-08-06 15:39:00,
2013-08-06 10:44:00,87.4,59.5,29.32,West,270,12.3,12.3,39,0.00,,---,0.00,VWS V14.01,2013-08-06 15:44:00,
2013-08-06 10:49:00,87.6,59.6,29.32,West,270,12.3,12.3,39,0.00,,---,0.00,VWS V14.01,2013-08-06 15:49:00,
2013-08-06 10:54:00,87.3,58.6,29.32,West,270,12.3,12.3,38,0.00,,---,0.00,VWS V14.01,2013-08-06 15:54:00,
2013-08-06 10:59:00,87.6,58.2,29.32,West,270,12.3,12.3,37,0.00,,---,0.00,VWS V14.01,2013-08-06 15:59:00,
2013-08-06 11:04:00,87.6,57.4,29.32,West,270,12.3,12.3,36,0.00,,---,0.00,VWS V14.01,2013-08-06 16:04:00,
2013-08-06 11:09:00,88.0,58.5,29.32,West,270,12.3,12.3,37,0.00,,---,0.00,VWS V14.01,2013-08-06 16:09:00,
2013-08-06 11:14:00,88.2,57.1,29.32,West,270,12.3,12.3,35,0.00,,---,0.00,VWS V14.01,2013-08-06 16:14:00,
2013-08-06 11:19:00,88.9,58.5,29.32,West,270,12.3,12.3,36,0.00,,---,0.00,VWS V14.01,2013-08-06 16:19:00,
2013-08-06 11:24:00,89.2,58.0,29.32,West,270,12.3,12.3,35,0.00,,---,0.00,VWS V14.01,2013-08-06 16:24:00,
2013-08-06 11:29:00,89.8,57.7,29.32,West,270,12.3,12.3,34,0.00,,---,0.00,VWS V14.01,2013-08-06 16:29:00,
2013-08-06 11:34:00,89.8,56.9,29.32,West,270,12.3,12.3,33,0.00,,---,0.00,VWS V14.01,2013-08-06 16:34:00,
2013-08-06 11:36:00,88.7,55.9,29.32,West,270,12.3,12.3,33,0.00,,---,0.00,VWS V14.01,2013-08-06 16:36:00,
2013-08-06 11:39:00,90.1,57.2,29.32,West,270,12.3,12.3,33,0.00,,---,0.00,VWS V14.01,2013-08-06 16:39:00,
2013-08-06 11:44:00,90.1,56.3,29.32,West,270,12.3,12.3,32,0.00,,---,0.00,VWS V14.01,2013-08-06 16:44:00,
2013-08-06 11:46:00,89.6,56.7,29.32,West,270,12.3,12.3,33,0.00,,---,0.00,VWS V14.01,2013-08-06 16:46:00,
2013-08-06 11:49:00,90.0,55.3,29.32,West,270,12.3,12.3,31,0.00,,---,0.00,VWS V14.01,2013-08-06 16:49:00,
2013-08-06 11:50:00,89.6,55.9,29.32,West,270,12.3,12.3,32,0.00,,---,0.00,VWS V14.01,2013-08-06 16:50:00,
2013-08-06 11:52:00,89.8,55.1,29.32,West,270,12.3,12.3,31,0.00,,---,0.00,VWS V14.01,2013-08-06 16:52:00,
2013-08-06 11:53:00,89.8,56.0,29.32,West,270,12.3,12.3,32,0.00,,---,0.00,VWS V14.01,2013-08-06 16:53:00,
2013-08-06 11:54:00,89.8,55.1,29.32,West,270,12.3,12.3,31,0.00,,---,0.00,VWS V14.01,2013-08-06 16:54:00,
2013-08-06 11:55:00,90.1,56.3,29.32,West,270,12.3,12.3,32,0.00,,---,0.00,VWS V14.01,2013-08-06 16:55:00,
2013-08-06 11:57:00,90.9,57.8,29.32,West,270,12.3,12.3,33,0.00,,---,0.00,VWS V14.01,2013-08-06 16:57:00,
2013-08-06 11:58:00,91.2,56.4,29.32,West,270,12.3,12.3,31,0.00,,---,0.00,VWS V14.01,2013-08-06 16:58:00,
2013-08-06 11:59:00,89.1,54.5,29.32,West,270,12.3,12.3,31,0.00,,---,0.00,VWS V14.01,2013-08-06 16:59:00,
2013-08-06 12:04:00,88.9,55.2,29.32,West,270,12.3,12.3,32,0.00,,---,0.00,VWS V14.01,2013-08-06 17:04:00,
2013-08-06 12:07:00,90.3,53.8,29.29,West,270,12.3,12.3,29,0.00,,---,0.00,VWS V14.01,2013-08-06 17:07:00,
2013-08-06 12:09:00,88.9,56.1,29.32,West,270,12.3,12.3,33,0.00,,---,0.00,VWS V14.01,2013-08-06 17:09:00,
2013-08-06 12:12:00,90.7,54.1,29.29,West,270,12.3,12.3,29,0.00,,---,0.00,VWS V14.01,2013-08-06 17:12:00,
2013-08-06 12:14:00,88.9,55.2,29.32,West,270,12.3,12.3,32,0.00,,---,0.00,VWS V14.01,2013-08-06 17:14:00,
2013-08-06 12:19:00,88.5,55.8,29.32,West,270,12.3,12.3,33,0.00,,---,0.00,VWS V14.01,2013-08-06 17:19:00,
2013-08-06 12:20:00,90.3,54.7,29.32,West,270,12.3,12.3,30,0.00,,---,0.00,VWS V14.01,2013-08-06 17:20:00,
2013-08-06 12:25:00,88.5,55.8,29.32,West,270,12.3,12.3,33,0.00,,---,0.00,VWS V14.01,2013-08-06 17:25:00,
2013-08-06 12:30:00,88.5,55.8,29.32,West,270,12.3,12.3,33,0.00,,---,0.00,VWS V14.01,2013-08-06 17:30:00,
2013-08-06 12:35:00,88.9,55.2,29.32,West,270,12.3,12.3,32,0.00,,---,0.00,VWS V14.01,2013-08-06 17:35:00,
2013-08-06 12:40:00,89.2,56.4,29.32,West,270,12.3,12.3,33,0.00,,---,0.00,VWS V14.01,2013-08-06 17:40:00,
2013-08-06 12:41:00,91.2,54.5,29.32,West,270,12.3,12.3,29,0.00,,---,0.00,VWS V14.01,2013-08-06 17:41:00,
2013-08-06 12:43:00,91.0,54.4,29.32,West,270,12.3,12.3,29,0.00,,---,0.00,VWS V14.01,2013-08-06 17:43:00,
2013-08-06 12:45:00,89.4,55.7,29.32,West,270,12.3,12.3,32,0.00,,---,0.00,VWS V14.01,2013-08-06 17:45:00,
2013-08-06 12:46:00,91.4,55.6,29.32,West,270,12.3,12.3,30,0.00,,---,0.00,VWS V14.01,2013-08-06 17:46:00,
2013-08-06 12:53:00,90.5,57.5,29.32,West,270,12.3,12.3,33,0.00,,---,0.00,VWS V14.01,2013-08-06 17:53:00,
2013-08-06 12:58:00,91.2,55.5,29.32,West,270,12.3,12.3,30,0.00,,---,0.00,VWS V14.01,2013-08-06 17:58:00,
2013-08-06 13:03:00,90.9,54.2,29.29,West,270,12.3,12.3,29,0.00,,---,0.00,VWS V14.01,2013-08-06 18:03:00,
2013-08-06 13:08:00,90.5,53.9,29.29,West,270,12.3,12.3,29,0.00,,---,0.00,VWS V14.01,2013-08-06 18:08:00,
2013-08-06 13:13:00,90.5,53.9,29.29,West,270,12.3,12.3,29,0.00,,---,0.00,VWS V14.01,2013-08-06 18:13:00,
2013-08-06 13:18:00,90.5,54.9,29.32,West,270,12.3,12.3,30,0.00,,---,0.00,VWS V14.01,2013-08-06 18:18:00,
2013-08-06 13:23:00,90.7,54.1,29.32,West,270,12.3,12.3,29,0.00,,---,0.00,VWS V14.01,2013-08-06 18:23:00,
2013-08-06 13:28:00,91.2,55.5,29.32,West,270,12.3,12.3,30,0.00,,---,0.00,VWS V14.01,2013-08-06 18:28:00,
2013-08-06 13:33:00,91.4,54.7,29.32,West,270,12.3,12.3,29,0.00,,---,0.00,VWS V14.01,2013-08-06 18:33:00,
2013-08-06 13:39:00,91.0,54.4,29.32,West,270,12.3,12.3,29,0.00,,---,0.00,VWS V14.01,2013-08-06 18:39:00,
2013-08-06 13:44:00,91.4,54.7,29.32,West,270,12.3,12.3,29,0.00,,---,0.00,VWS V14.01,2013-08-06 18:44:00,
2013-08-06 13:49:00,92.5,58.4,29.32,West,270,12.3,12.3,32,0.00,,---,0.00,VWS V14.01,2013-08-06 18:49:00,
2013-08-06 13:54:00,92.3,55.5,29.32,West,270,12.3,12.3,29,0.00,,---,0.00,VWS V14.01,2013-08-06 18:54:00,
2013-08-06 13:59:00,92.5,55.6,29.32,West,270,12.3,12.3,29,0.00,,---,0.00,VWS V14.01,2013-08-06 18:59:00,
2013-08-06 14:04:00,92.7,54.8,29.32,West,270,12.3,12.3,28,0.00,,---,0.00,VWS V14.01,2013-08-06 19:04:00,
2013-08-06 14:09:00,92.3,54.5,29.32,West,270,12.3,12.3,28,0.00,,---,0.00,VWS V14.01,2013-08-06 19:09:00,
2013-08-06 14:14:00,92.3,55.5,29.29,West,270,12.3,12.3,29,0.00,,---,0.00,VWS V14.01,2013-08-06 19:14:00,
2013-08-06 14:19:00,92.5,54.7,29.29,West,270,12.3,12.3,28,0.00,,---,0.00,VWS V14.01,2013-08-06 19:19:00,
2013-08-06 14:24:00,92.7,54.8,29.29,West,270,12.3,12.3,28,0.00,,---,0.00,VWS V14.01,2013-08-06 19:24:00,
2013-08-06 14:29:00,92.8,55.0,29.29,West,270,12.3,12.3,28,0.00,,---,0.00,VWS V14.01,2013-08-06 19:29:00,
2013-08-06 14:34:00,93.4,54.4,29.29,West,270,12.3,12.3,27,0.00,,---,0.00,VWS V14.01,2013-08-06 19:34:00,
2013-08-06 14:39:00,94.3,55.2,29.29,West,270,12.3,12.3,27,0.00,,---,0.00,VWS V14.01,2013-08-06 19:39:00,
2013-08-06 14:44:00,95.4,52.9,29.26,West,270,12.3,12.3,24,0.00,,---,0.00,VWS V14.01,2013-08-06 19:44:00,
2013-08-06 14:45:00,94.6,55.5,29.26,West,270,12.3,12.3,27,0.00,,---,0.00,VWS V14.01,2013-08-06 19:45:00,
2013-08-06 14:50:00,94.5,55.3,29.26,West,270,12.3,12.3,27,0.00,,---,0.00,VWS V14.01,2013-08-06 19:50:00,
2013-08-06 14:51:00,95.4,51.7,29.26,West,270,12.3,12.3,23,0.00,,---,0.00,VWS V14.01,2013-08-06 19:51:00,
2013-08-06 14:55:00,94.3,53.1,29.26,West,270,12.3,12.3,25,0.00,,---,0.00,VWS V14.01,2013-08-06 19:55:00,
2013-08-06 14:56:00,95.4,50.5,29.26,West,270,12.3,12.3,22,0.00,,---,0.00,VWS V14.01,2013-08-06 19:56:00,
2013-08-06 15:00:00,94.3,55.2,29.26,West,270,12.3,12.3,27,0.00,,---,0.00,VWS V14.01,2013-08-06 20:00:00,
2013-08-06 15:01:00,95.7,53.2,29.26,West,270,12.3,12.3,24,0.00,,---,0.00,VWS V14.01,2013-08-06 20:01:00,
2013-08-06 15:04:00,95.7,50.8,29.26,West,270,12.3,12.3,22,0.00,,---,0.00,VWS V14.01,2013-08-06 20:04:00,
2013-08-06 15:05:00,94.3,55.2,29.26,West,270,12.3,12.3,27,0.00,,---,0.00,VWS V14.01,2013-08-06 20:05:00,
2013-08-06 15:10:00,94.5,52.1,29.26,West,270,12.3,12.3,24,0.00,,---,0.00,VWS V14.01,2013-08-06 20:10:00,
2013-08-06 15:11:00,95.9,52.2,29.26,West,270,12.3,12.3,23,0.00,,---,0.00,VWS V14.01,2013-08-06 20:11:00,
2013-08-06 15:13:00,96.1,51.1,29.26,West,270,12.3,12.3,22,0.00,,---,0.00,VWS V14.01,2013-08-06 20:13:00,
2013-08-06 15:15:00,94.3,52.0,29.26,West,270,12.3,12.3,24,0.00,,---,0.00,VWS V14.01,2013-08-06 20:15:00,
2013-08-06 15:16:00,96.1,48.6,29.26,West,270,12.3,12.3,20,0.00,,---,0.00,VWS V14.01,2013-08-06 20:16:00,
2013-08-06 15:20:00,95.0,54.8,29.26,West,270,12.3,12.3,26,0.00,,---,0.00,VWS V14.01,2013-08-06 20:20:00,
2013-08-06 15:24:00,96.6,50.3,29.26,West,270,12.3,12.3,21,0.00,,---,0.00,VWS V14.01,2013-08-06 20:24:00,
2013-08-06 15:25:00,94.8,53.5,29.26,West,270,12.3,12.3,25,0.00,,---,0.00,VWS V14.01,2013-08-06 20:25:00,
2013-08-06 15:29:00,96.6,51.6,29.26,West,270,12.3,12.3,22,0.00,,---,0.00,VWS V14.01,2013-08-06 20:29:00,
2013-08-06 15:30:00,94.6,51.1,29.26,West,270,12.3,12.3,23,0.00,,---,0.00,VWS V14.01,2013-08-06 20:30:00,
2013-08-06 15:35:00,94.8,50.1,29.26,West,270,12.3,12.3,22,0.00,,---,0.00,VWS V14.01,2013-08-06 20:35:00,
2013-08-06 15:36:00,96.8,49.2,29.26,West,270,12.3,12.3,20,0.00,,---,0.00,VWS V14.01,2013-08-06 20:36:00,
2013-08-06 15:38:00,96.8,50.5,29.26,West,270,12.3,12.3,21,0.00,,---,0.00,VWS V14.01,2013-08-06 20:38:00,
2013-08-06 15:39:00,97.0,50.6,29.26,West,270,12.3,12.3,21,0.00,,---,0.00,VWS V14.01,2013-08-06 20:39:00,
2013-08-06 15:40:00,95.4,51.7,29.26,West,270,12.3,12.3,23,0.00,,---,0.00,VWS V14.01,2013-08-06 20:40:00,
2013-08-06 15:45:00,95.5,51.9,29.26,West,270,12.3,12.3,23,0.00,,---,0.00,VWS V14.01,2013-08-06 20:45:00,
2013-08-06 15:46:00,97.0,49.3,29.26,West,270,12.3,12.3,20,0.00,,---,0.00,VWS V14.01,2013-08-06 20:46:00,
2013-08-06 15:50:00,95.4,51.7,29.26,West,270,12.3,12.3,23,0.00,,---,0.00,VWS V14.01,2013-08-06 20:50:00,
2013-08-06 15:55:00,95.5,51.9,29.26,West,270,12.3,12.3,23,0.00,,---,0.00,VWS V14.01,2013-08-06 20:55:00,
2013-08-06 16:00:00,95.7,50.8,29.26,West,270,12.3,12.3,22,0.00,,---,0.00,VWS V14.01,2013-08-06 21:00:00,
2013-08-06 16:05:00,95.7,52.0,29.26,West,270,12.3,12.3,23,0.00,,---,0.00,VWS V14.01,2013-08-06 21:05:00,
2013-08-06 16:09:00,96.6,50.3,29.26,West,270,12.3,12.3,21,0.00,,---,0.00,VWS V14.01,2013-08-06 21:09:00,
2013-08-06 16:11:00,96.1,51.1,29.26,West,270,12.3,12.3,22,0.00,,---,0.00,VWS V14.01,2013-08-06 21:11:00,
2013-08-06 16:16:00,96.4,50.2,29.26,West,270,12.3,12.3,21,0.00,,---,0.00,VWS V14.01,2013-08-06 21:16:00,
2013-08-06 16:22:00,96.6,51.6,29.26,West,270,12.3,12.3,22,0.00,,---,0.00,VWS V14.01,2013-08-06 21:22:00,
2013-08-06 16:27:00,96.6,50.3,29.26,West,270,12.3,12.3,21,0.00,,---,0.00,VWS V14.01,2013-08-06 21:27:00,
2013-08-06 16:32:00,96.8,51.7,29.26,West,270,12.3,12.3,22,0.00,,---,0.00,VWS V14.01,2013-08-06 21:32:00,
2013-08-06 16:37:00,97.0,50.6,29.26,West,270,12.3,12.3,21,0.00,,---,0.00,VWS V14.01,2013-08-06 21:37:00,
2013-08-06 16:42:00,97.0,50.6,29.26,West,270,12.3,12.3,21,0.00,,---,0.00,VWS V14.01,2013-08-06 21:42:00,
2013-08-06 16:47:00,96.4,48.9,29.26,West,270,12.3,12.3,20,0.00,,---,0.00,VWS V14.01,2013-08-06 21:47:00,
2013-08-06 16:52:00,97.0,49.3,29.26,West,270,12.3,12.3,20,0.00,,---,0.00,VWS V14.01,2013-08-06 21:52:00,
2013-08-06 16:57:00,97.0,51.9,29.26,West,270,12.3,12.3,22,0.00,,---,0.00,VWS V14.01,2013-08-06 21:57:00,
2013-08-06 17:02:00,96.8,49.2,29.26,West,270,12.3,12.3,20,0.00,,---,0.00,VWS V14.01,2013-08-06 22:02:00,
2013-08-06 17:06:00,96.6,50.3,29.26,West,270,12.3,12.3,21,0.00,,---,0.00,VWS V14.01,2013-08-06 22:06:00,
2013-08-06 17:11:00,96.6,51.6,29.26,West,270,12.3,12.3,22,0.00,,---,0.00,VWS V14.01,2013-08-06 22:11:00,
2013-08-06 17:16:00,96.3,51.3,29.23,West,270,12.3,12.3,22,0.00,,---,0.00,VWS V14.01,2013-08-06 22:16:00,
2013-08-06 17:21:00,96.4,51.4,29.23,West,270,12.3,12.3,22,0.00,,---,0.00,VWS V14.01,2013-08-06 22:21:00,
2013-08-06 17:26:00,96.1,51.1,29.23,West,270,12.3,12.3,22,0.00,,---,0.00,VWS V14.01,2013-08-06 22:26:00,
2013-08-06 17:31:00,96.1,52.3,29.26,West,270,12.3,12.3,23,0.00,,---,0.00,VWS V14.01,2013-08-06 22:31:00,
2013-08-06 17:37:00,96.4,51.4,29.26,West,270,12.3,12.3,22,0.00,,---,0.00,VWS V14.01,2013-08-06 22:37:00,
2013-08-06 17:42:00,96.4,51.4,29.26,West,270,12.3,12.3,22,0.00,,---,0.00,VWS V14.01,2013-08-06 22:42:00,
2013-08-06 17:47:00,96.8,51.7,29.23,West,270,12.3,12.3,22,0.00,,---,0.00,VWS V14.01,2013-08-06 22:47:00,
2013-08-06 17:52:00,97.0,51.9,29.23,West,270,12.3,12.3,22,0.00,,---,0.00,VWS V14.01,2013-08-06 22:52:00,
2013-08-06 17:57:00,97.0,50.6,29.23,West,270,12.3,12.3,21,0.00,,---,0.00,VWS V14.01,2013-08-06 22:57:00,
2013-08-06 18:02:00,96.8,50.5,29.23,West,270,12.3,12.3,21,0.00,,---,0.00,VWS V14.01,2013-08-06 23:02:00,
2013-08-06 18:07:00,96.8,51.7,29.23,West,270,12.3,12.3,22,0.00,,---,0.00,VWS V14.01,2013-08-06 23:07:00,
2013-08-06 18:12:00,97.0,51.9,29.23,West,270,12.3,12.3,22,0.00,,---,0.00,VWS V14.01,2013-08-06 23:12:00,
2013-08-06 18:17:00,96.6,50.3,29.23,West,270,12.3,12.3,21,0.00,,---,0.00,VWS V14.01,2013-08-06 23:17:00,
2013-08-06 18:22:00,96.4,50.2,29.23,West,270,12.3,12.3,21,0.00,,---,0.00,VWS V14.01,2013-08-06 23:22:00,
2013-08-06 18:27:00,96.3,51.3,29.23,West,270,12.3,12.3,22,0.00,,---,0.00,VWS V14.01,2013-08-06 23:27:00,
2013-08-06 18:32:00,95.9,51.0,29.23,West,270,12.3,12.3,22,0.00,,---,0.00,VWS V14.01,2013-08-06 23:32:00,
2013-08-06 18:37:00,95.9,51.0,29.23,West,270,12.3,12.3,22,0.00,,---,0.00,VWS V14.01,2013-08-06 23:37:00,
2013-08-06 18:42:00,95.5,50.7,29.23,West,270,12.3,12.3,22,0.00,,---,0.00,VWS V14.01,2013-08-06 23:42:00,
2013-08-06 18:47:00,95.4,51.7,29.20,West,270,12.3,12.3,23,0.00,,---,0.00,VWS V14.01,2013-08-06 23:47:00,
2013-08-06 18:52:00,95.2,51.6,29.20,West,270,12.3,12.3,23,0.00,,---,0.00,VWS V14.01,2013-08-06 23:52:00,
2013-08-06 18:57:00,94.8,53.5,29.20,West,270,12.3,12.3,25,0.00,,---,0.00,VWS V14.01,2013-08-06 23:57:00,
2013-08-06 19:02:00,94.8,54.6,29.20,West,270,12.3,12.3,26,0.00,,---,0.00,VWS V14.01,2013-08-07 00:02:00,
2013-08-06 19:07:00,94.5,54.3,29.20,West,270,12.3,12.3,26,0.00,,---,0.00,VWS V14.01,2013-08-07 00:07:00,
2013-08-06 19:12:00,94.1,55.0,29.20,West,270,12.3,12.3,27,0.00,,---,0.00,VWS V14.01,2013-08-07 00:12:00,
2013-08-06 19:17:00,93.9,54.9,29.20,West,270,12.3,12.3,27,0.00,,---,0.00,VWS V14.01,2013-08-07 00:17:00,
2013-08-06 19:23:00,93.6,54.6,29.20,West,270,12.3,12.3,27,0.00,,---,0.00,VWS V14.01,2013-08-07 00:23:00,
2013-08-06 19:28:00,93.4,54.4,29.20,West,270,12.3,12.3,27,0.00,,---,0.00,VWS V14.01,2013-08-07 00:28:00,
2013-08-06 19:33:00,92.8,55.0,29.20,West,270,12.3,12.3,28,0.00,,---,0.00,VWS V14.01,2013-08-07 00:33:00,
2013-08-06 19:38:00,92.3,56.4,29.20,West,270,12.3,12.3,30,0.00,,---,0.00,VWS V14.01,2013-08-07 00:38:00,
2013-08-06 19:43:00,91.8,56.0,29.20,West,270,12.3,12.3,30,0.00,,---,0.00,VWS V14.01,2013-08-07 00:43:00,
2013-08-06 19:48:00,91.6,55.8,29.20,West,270,12.3,12.3,30,0.00,,---,0.00,VWS V14.01,2013-08-07 00:48:00,
2013-08-06 19:53:00,91.2,56.4,29.20,West,270,12.3,12.3,31,0.00,,---,0.00,VWS V14.01,2013-08-07 00:53:00,
2013-08-06 19:58:00,90.9,55.2,29.20,West,270,12.3,12.3,30,0.00,,---,0.00,VWS V14.01,2013-08-07 00:58:00,
2013-08-06 20:03:00,90.5,54.9,29.20,West,270,12.3,12.3,30,0.00,,---,0.00,VWS V14.01,2013-08-07 01:03:00,
2013-08-06 20:08:00,90.1,54.5,29.20,West,270,12.3,12.3,30,0.00,,---,0.00,VWS V14.01,2013-08-07 01:08:00,
2013-08-06 20:13:00,90.0,53.5,29.20,West,270,12.3,12.3,29,0.00,,---,0.00,VWS V14.01,2013-08-07 01:13:00,
2013-08-06 20:18:00,89.6,53.2,29.20,West,270,12.3,12.3,29,0.00,,---,0.00,VWS V14.01,2013-08-07 01:18:00,
2013-08-06 20:23:00,89.2,53.8,29.20,West,270,12.3,12.3,30,0.00,,---,0.00,VWS V14.01,2013-08-07 01:23:00,
2013-08-06 20:28:00,88.9,53.5,29.20,West,270,12.3,12.3,30,0.00,,---,0.00,VWS V14.01,2013-08-07 01:28:00,
2013-08-06 20:33:00,88.5,53.2,29.20,West,270,12.3,12.3,30,0.00,,---,0.00,VWS V14.01,2013-08-07 01:33:00,
2013-08-06 20:38:00,88.2,53.7,29.20,West,270,12.3,12.3,31,0.00,,---,0.00,VWS V14.01,2013-08-07 01:38:00,
2013-08-06 20:43:00,87.8,53.4,29.20,West,270,12.3,12.3,31,0.00,,---,0.00,VWS V14.01,2013-08-07 01:43:00,
2013-08-06 20:48:00,87.6,53.3,29.20,West,270,12.3,12.3,31,0.00,,---,0.00,VWS V14.01,2013-08-07 01:48:00,
2013-08-06 20:53:00,87.6,54.2,29.20,West,270,12.3,12.3,32,0.00,,---,0.00,VWS V14.01,2013-08-07 01:53:00,
2013-08-06 20:58:00,87.4,54.0,29.20,West,270,12.3,12.3,32,0.00,,---,0.00,VWS V14.01,2013-08-07 01:58:00,
2013-08-06 21:03:00,87.4,54.0,29.23,West,270,12.3,12.3,32,0.00,,---,0.00,VWS V14.01,2013-08-07 02:03:00,
2013-08-06 21:08:00,87.4,54.0,29.23,West,270,12.3,12.3,32,0.00,,---,0.00,VWS V14.01,2013-08-07 02:08:00,
2013-08-06 21:13:00,87.6,53.3,29.23,West,270,12.3,12.3,31,0.00,,---,0.00,VWS V14.01,2013-08-07 02:13:00,
2013-08-06 21:19:00,87.6,53.3,29.23,West,270,12.3,12.3,31,0.00,,---,0.00,VWS V14.01,2013-08-07 02:19:00,
2013-08-06 21:24:00,87.6,53.3,29.23,West,270,12.3,12.3,31,0.00,,---,0.00,VWS V14.01,2013-08-07 02:24:00,
2013-08-06 21:29:00,87.6,53.3,29.23,West,270,12.3,12.3,31,0.00,,---,0.00,VWS V14.01,2013-08-07 02:29:00,
2013-08-06 21:34:00,87.6,53.3,29.23,West,270,12.3,12.3,31,0.00,,---,0.00,VWS V14.01,2013-08-07 02:34:00,
2013-08-06 21:39:00,87.4,53.1,29.23,West,270,12.3,12.3,31,0.00,,---,0.00,VWS V14.01,2013-08-07 02:39:00,
2013-08-06 21:44:00,87.3,53.0,29.26,West,270,12.3,12.3,31,0.00,,---,0.00,VWS V14.01,2013-08-07 02:44:00,
2013-08-06 21:49:00,87.3,53.0,29.26,West,270,12.3,12.3,31,0.00,,---,0.00,VWS V14.01,2013-08-07 02:49:00,
2013-08-06 21:54:00,87.1,53.7,29.26,West,270,12.3,12.3,32,0.00,,---,0.00,VWS V14.01,2013-08-07 02:54:00,
2013-08-06 21:59:00,87.1,53.7,29.23,West,270,12.3,12.3,32,0.00,,---,0.00,VWS V14.01,2013-08-07 02:59:00,
2013-08-06 22:04:00,84.6,55.5,29.26,West,270,12.3,12.3,37,0.00,,---,0.00,VWS V14.01,2013-08-07 03:04:00,
2013-08-06 22:05:00,86.9,53.5,29.23,West,270,12.3,12.3,32,0.00,,---,0.00,VWS V14.01,2013-08-07 03:05:00,
2013-08-06 22:06:00,84.4,55.3,29.26,West,270,12.3,12.3,37,0.00,,---,0.00,VWS V14.01,2013-08-07 03:06:00,
2013-08-06 22:07:00,84.4,55.3,29.26,West,270,12.3,12.3,37,0.00,,---,0.00,VWS V14.01,2013-08-07 03:07:00,
2013-08-06 22:08:00,84.4,55.3,29.26,West,270,12.3,12.3,37,0.00,,---,0.00,VWS V14.01,2013-08-07 03:08:00,
2013-08-06 22:09:00,84.4,55.3,29.26,West,270,12.3,12.3,37,0.00,,---,0.00,VWS V14.01,2013-08-07 03:09:00,
2013-08-06 22:10:00,86.7,53.4,29.23,West,270,12.3,12.3,32,0.00,,---,0.00,VWS V14.01,2013-08-07 03:10:00,
2013-08-06 22:11:00,84.2,55.9,29.26,West,270,12.3,12.3,38,0.00,,---,0.00,VWS V14.01,2013-08-07 03:11:00,
2013-08-06 22:12:00,84.2,55.9,29.26,West,270,12.3,12.3,38,0.00,,---,0.00,VWS V14.01,2013-08-07 03:12:00,
2013-08-06 22:13:00,84.2,55.9,29.26,West,270,12.3,12.3,38,0.00,,---,0.00,VWS V14.01,2013-08-07 03:13:00,
2013-08-06 22:14:00,84.2,55.9,29.26,West,270,12.3,12.3,38,0.00,,---,0.00,VWS V14.01,2013-08-07 03:14:00,
2013-08-06 22:15:00,86.7,53.4,29.26,West,270,12.3,12.3,32,0.00,,---,0.00,VWS V14.01,2013-08-07 03:15:00,
2013-08-06 22:16:00,84.0,56.4,29.26,West,270,12.3,12.3,39,0.00,,---,0.00,VWS V14.01,2013-08-07 03:16:00,
2013-08-06 22:17:00,84.0,56.4,29.26,West,270,12.3,12.3,39,0.00,,---,0.00,VWS V14.01,2013-08-07 03:17:00,
2013-08-06 22:18:00,84.0,56.4,29.26,West,270,12.3,12.3,39,0.00,,---,0.00,VWS V14.01,2013-08-07 03:18:00,
2013-08-06 22:19:00,84.0,56.4,29.26,West,270,12.3,12.3,39,0.00,,---,0.00,VWS V14.01,2013-08-07 03:19:00,
2013-08-06 22:20:00,86.4,53.9,29.26,West,270,12.3,12.3,33,0.00,,---,0.00,VWS V14.01,2013-08-07 03:20:00,
2013-08-06 22:21:00,83.8,56.3,29.26,West,270,12.3,12.3,39,0.00,,---,0.00,VWS V14.01,2013-08-07 03:21:00,
2013-08-06 22:22:00,83.8,56.3,29.26,West,270,12.3,12.3,39,0.00,,---,0.00,VWS V14.01,2013-08-07 03:22:00,
2013-08-06 22:23:00,83.8,57.0,29.26,West,270,12.3,12.3,40,0.00,,---,0.00,VWS V14.01,2013-08-07 03:23:00,
2013-08-06 22:24:00,83.8,57.0,29.26,West,270,12.3,12.3,40,0.00,,---,0.00,VWS V14.01,2013-08-07 03:24:00,
2013-08-06 22:25:00,86.2,53.7,29.26,West,270,12.3,12.3,33,0.00,,---,0.00,VWS V14.01,2013-08-07 03:25:00,
2013-08-06 22:26:00,83.8,57.0,29.26,West,270,12.3,12.3,40,0.00,,---,0.00,VWS V14.01,2013-08-07 03:26:00,
2013-08-06 22:27:00,83.7,56.8,29.26,West,270,12.3,12.3,40,0.00,,---,0.00,VWS V14.01,2013-08-07 03:27:00,
2013-08-06 22:28:00,83.7,56.8,29.26,West,270,12.3,12.3,40,0.00,,---,0.00,VWS V14.01,2013-08-07 03:28:00,
2013-08-06 22:29:00,83.7,56.8,29.26,West,270,12.3,12.3,40,0.00,,---,0.00,VWS V14.01,2013-08-07 03:29:00,
2013-08-06 22:30:00,86.2,53.7,29.23,West,270,12.3,12.3,33,0.00,,---,0.00,VWS V14.01,2013-08-07 03:30:00,
2013-08-06 22:31:00,83.5,57.3,29.26,West,270,12.3,12.3,41,0.00,,---,0.00,VWS V14.01,2013-08-07 03:31:00,
2013-08-06 22:32:00,83.3,57.2,29.26,West,270,12.3,12.3,41,0.00,,---,0.00,VWS V14.01,2013-08-07 03:32:00,
2013-08-06 22:33:00,83.3,57.2,29.26,West,270,12.3,12.3,41,0.00,,---,0.00,VWS V14.01,2013-08-07 03:33:00,
2013-08-06 22:34:00,83.1,57.0,29.26,West,270,12.3,12.3,41,0.00,,---,0.00,VWS V14.01,2013-08-07 03:34:00,
2013-08-06 22:35:00,86.0,54.4,29.23,West,270,12.3,12.3,34,0.00,,---,0.00,VWS V14.01,2013-08-07 03:35:00,
2013-08-06 22:36:00,82.9,56.8,29.26,West,270,12.3,12.3,41,0.00,,---,0.00,VWS V14.01,2013-08-07 03:36:00,
2013-08-06 22:37:00,82.9,56.8,29.26,West,270,12.3,12.3,41,0.00,,---,0.00,VWS V14.01,2013-08-07 03:37:00,
2013-08-06 22:38:00,82.9,56.8,29.26,West,270,12.3,12.3,41,0.00,,---,0.00,VWS V14.01,2013-08-07 03:38:00,
2013-08-06 22:39:00,82.8,56.7,29.26,West,270,12.3,12.3,41,0.00,,---,0.00,VWS V14.01,2013-08-07 03:39:00,
2013-08-06 22:40:00,85.8,54.2,29.23,West,270,12.3,12.3,34,0.00,,---,0.00,VWS V14.01,2013-08-07 03:40:00,
2013-08-06 22:41:00,82.8,56.7,29.26,West,270,12.3,12.3,41,0.00,,---,0.00,VWS V14.01,2013-08-07 03:41:00,
2013-08-06 22:42:00,82.8,56.7,29.26,West,270,12.3,12.3,41,0.00,,---,0.00,VWS V14.01,2013-08-07 03:42:00,
2013-08-06 22:43:00,82.8,56.7,29.26,West,270,12.3,12.3,41,0.00,,---,0.00,VWS V14.01,2013-08-07 03:43:00,
2013-08-06 22:44:00,82.6,56.5,29.26,West,270,12.3,12.3,41,0.00,,---,0.00,VWS V14.01,2013-08-07 03:44:00,
2013-08-06 22:45:00,85.6,54.9,29.23,West,270,12.3,12.3,35,0.00,,---,0.00,VWS V14.01,2013-08-07 03:45:00,
2013-08-06 22:46:00,82.6,57.2,29.26,West,270,12.3,12.3,42,0.00,,---,0.00,VWS V14.01,2013-08-07 03:46:00,
2013-08-06 22:47:00,82.6,57.2,29.26,West,270,12.3,12.3,42,0.00,,---,0.00,VWS V14.01,2013-08-07 03:47:00,
2013-08-06 22:48:00,82.6,57.2,29.26,West,270,12.3,12.3,42,0.00,,---,0.00,VWS V14.01,2013-08-07 03:48:00,
2013-08-06 22:49:00,82.6,57.2,29.26,West,270,12.3,12.3,42,0.00,,---,0.00,VWS V14.01,2013-08-07 03:49:00,
2013-08-06 22:50:00,85.3,54.6,29.23,West,270,12.3,12.3,35,0.00,,---,0.00,VWS V14.01,2013-08-07 03:50:00,
2013-08-06 22:51:00,82.4,57.0,29.26,West,270,12.3,12.3,42,0.00,,---,0.00,VWS V14.01,2013-08-07 03:51:00,
2013-08-06 22:52:00,82.4,57.0,29.26,West,270,12.3,12.3,42,0.00,,---,0.00,VWS V14.01,2013-08-07 03:52:00,
2013-08-06 22:53:00,82.4,57.7,29.26,West,270,12.3,12.3,43,0.00,,---,0.00,VWS V14.01,2013-08-07 03:53:00,
2013-08-06 22:54:00,82.4,57.7,29.26,West,270,12.3,12.3,43,0.00,,---,0.00,VWS V14.01,2013-08-07 03:54:00,
2013-08-06 22:55:00,84.9,55.0,29.23,West,270,12.3,12.3,36,0.00,,---,0.00,VWS V14.01,2013-08-07 03:55:00,
2013-08-06 22:56:00,82.2,57.5,29.26,West,270,12.3,12.3,43,0.00,,---,0.00,VWS V14.01,2013-08-07 03:56:00,
2013-08-06 22:57:00,82.2,58.2,29.26,West,270,12.3,12.3,44,0.00,,---,0.00,VWS V14.01,2013-08-07 03:57:00,
2013-08-06 22:58:00,82.2,58.2,29.26,West,270,12.3,12.3,44,0.00,,---,0.00,VWS V14.01,2013-08-07 03:58:00,
2013-08-06 22:59:00,82.2,58.2,29.26,West,270,12.3,12.3,44,0.00,,---,0.00,VWS V14.01,2013-08-07 03:59:00,
2013-08-06 23:00:00,84.6,54.7,29.26,West,270,12.3,12.3,36,0.00,,---,0.00,VWS V14.01,2013-08-07 04:00:00,
2013-08-06 23:01:00,82.2,58.8,29.26,West,270,12.3,12.3,45,0.00,,---,0.00,VWS V14.01,2013-08-07 04:01:00,
2013-08-06 23:02:00,82.2,58.8,29.26,West,270,12.3,12.3,45,0.00,,---,0.00,VWS V14.01,2013-08-07 04:02:00,
2013-08-06 23:03:00,82.0,58.6,29.26,West,270,12.3,12.3,45,0.00,,---,0.00,VWS V14.01,2013-08-07 04:03:00,
2013-08-06 23:04:00,82.0,58.6,29.26,West,270,12.3,12.3,45,0.00,,---,0.00,VWS V14.01,2013-08-07 04:04:00,
2013-08-06 23:05:00,82.0,58.6,29.26,West,270,12.3,12.3,45,0.00,,---,0.00,VWS V14.01,2013-08-07 04:05:00,
2013-08-06 23:06:00,82.0,58.6,29.26,West,270,12.3,12.3,45,0.00,,---,0.00,VWS V14.01,2013-08-07 04:06:00,
2013-08-06 23:07:00,82.0,58.6,29.26,West,270,12.3,12.3,45,0.00,,---,0.00,VWS V14.01,2013-08-07 04:07:00,
2013-08-06 23:08:00,82.0,58.6,29.26,West,270,12.3,12.3,45,0.00,,---,0.00,VWS V14.01,2013-08-07 04:08:00,
2013-08-06 23:09:00,81.9,58.5,29.26,West,270,12.3,12.3,45,0.00,,---,0.00,VWS V14.01,2013-08-07 04:09:00,
2013-08-06 23:10:00,81.9,58.5,29.26,West,270,12.3,12.3,45,0.00,,---,0.00,VWS V14.01,2013-08-07 04:10:00,
2013-08-06 23:12:00,81.9,58.5,29.26,West,270,12.3,12.3,45,0.00,,---,0.00,VWS V14.01,2013-08-07 04:12:00,
2013-08-06 23:13:00,81.9,58.5,29.26,West,270,12.3,12.3,45,0.00,,---,0.00,VWS V14.01,2013-08-07 04:13:00,
2013-08-06 23:15:00,81.9,58.5,29.26,West,270,12.3,12.3,45,0.00,,---,0.00,VWS V14.01,2013-08-07 04:15:00,
2013-08-06 23:16:00,81.9,59.1,29.26,West,270,12.3,12.3,46,0.00,,---,0.00,VWS V14.01,2013-08-07 04:16:00,
2013-08-06 23:18:00,81.7,58.9,29.26,West,270,12.3,12.3,46,0.00,,---,0.00,VWS V14.01,2013-08-07 04:18:00,
2013-08-06 23:20:00,81.7,58.9,29.26,West,270,12.3,12.3,46,0.00,,---,0.00,VWS V14.01,2013-08-07 04:20:00,
2013-08-06 23:22:00,81.7,58.9,29.26,West,270,12.3,12.3,46,0.00,,---,0.00,VWS V14.01,2013-08-07 04:22:00,
2013-08-06 23:29:00,81.5,59.3,29.26,West,270,12.3,12.3,47,0.00,,---,0.00,VWS V14.01,2013-08-07 04:29:00,
2013-08-06 23:32:00,81.5,59.3,29.26,West,270,12.3,12.3,47,0.00,,---,0.00,VWS V14.01,2013-08-07 04:32:00,
2013-08-06 23:33:00,81.5,59.3,29.26,West,270,12.3,12.3,47,0.00,,---,0.00,VWS V14.01,2013-08-07 04:33:00,
2013-08-06 23:35:00,81.5,59.3,29.26,West,270,12.3,12.3,47,0.00,,---,0.00,VWS V14.01,2013-08-07 04:35:00,
2013-08-06 23:37:00,81.5,59.3,29.26,West,270,12.3,12.3,47,0.00,,---,0.00,VWS V14.01,2013-08-07 04:37:00,
2013-08-06 23:39:00,81.5,59.3,29.26,West,270,12.3,12.3,47,0.00,,---,0.00,VWS V14.01,2013-08-07 04:39:00,
2013-08-06 23:40:00,81.5,59.3,29.26,West,270,12.3,12.3,47,0.00,,---,0.00,VWS V14.01,2013-08-07 04:40:00,
2013-08-06 23:43:00,81.3,59.2,29.26,West,270,12.3,12.3,47,0.00,,---,0.00,VWS V14.01,2013-08-07 04:43:00,
2013-08-06 23:50:00,81.3,59.8,29.26,West,270,12.3,12.3,48,0.00,,---,0.00,VWS V14.01,2013-08-07 04:50:00,
2013-08-06 23:53:00,81.1,59.6,29.26,West,270,12.3,12.3,48,0.00,,---,0.00,VWS V14.01,2013-08-07 04:53:00,
2013-08-06 23:54:00,81.1,60.2,29.26,West,270,12.3,12.3,49,0.00,,---,0.00,VWS V14.01,2013-08-07 04:54:00,